Location: Hrubieszów
(50.8077°N, 23.8873°E)
Time: 04:54:46
(UTC+01:00)

ISS - Visible Passes

Search period start: 24 November 2017 00:00
Search period end: 04 December 2017 00:00
Orbit: 402 x 407 km, 51.6° (Epoch: 24 November)

Date Brightness Start Highest point End Pass type
(mag) Time Alt. Az. Time Alt. Az. Time Alt. Az.
27 Nov -1.1 17:35:07 10° S 17:35:10 10° SSE 17:35:10 10° SSE visible
28 Nov -0.9 18:17:24 10° SW 18:17:50 13° SW 18:17:50 13° SW visible
29 Nov -2.2 17:25:31 10° SSW 17:27:45 23° SSE 17:27:45 23° SSE visible
30 Nov -1.7 16:33:59 10° S 16:36:03 16° SE 16:37:36 12° ESE visible
30 Nov -1.6 18:08:48 10° WSW 18:10:15 24° SW 18:10:15 24° SW visible
01 Dec -3.2 17:16:36 10° SW 17:19:43 41° SSE 17:20:01 40° SE visible
02 Dec -2.4 16:24:35 10° SSW 16:27:26 28° SSE 16:29:44 13° E visible
02 Dec -2.2 18:00:22 10° WSW 18:02:23 34° WSW 18:02:23 34° WSW visible
03 Dec -3.8 17:08:00 10° WSW 17:11:15 67° SSE 17:12:04 45° E visible
03 Dec -0.3 18:44:28 10° W 18:44:42 12° W 18:44:42 12° W visible
